When you browse on this site, cookies collect data to enhance your experience and personalize the content and advertising you see.
Visit our Privacy Policy to learn more. By continuing to use the site, you agree to this use of cookies and data.
  • In Germany
  • List of Countries
  • For 7 days
  • Water Temperature
  • Weather Map
  • Weather Widgets
  • user-avatar
    Login

    Hourly Weather Steinkjer

    Today, 3 April, Friday

    Time Temperature Precipitation Wind Pressure Humidity
    00:00 -5°C° 0.1 mm 8 mps 728 mmHg 80%
    01:00 -6°C° 0.1 mm 7 mps 729 mmHg 75%
    02:00 -6°C° 0.1 mm 7 mps 730 mmHg 76%
    03:00 -6°C° 0.1 mm 7 mps 731 mmHg 77%
    04:00 -6°C° 0.1 mm 7 mps 731 mmHg 79%
    05:00 -6°C° 0.1 mm 7 mps 732 mmHg 78%
    06:00 -5°C° 0.1 mm 6 mps 733 mmHg 78%
    07:00 -5°C° 0.1 mm 6 mps 733 mmHg 77%
    08:00 -5°C° 0.2 mm 6 mps 734 mmHg 74%
    09:00 -4°C° 0.2 mm 7 mps 735 mmHg 70%
    10:00 -5°C° 0.2 mm 8 mps 735 mmHg 67%
    11:00 -4°C° 0.2 mm 7 mps 736 mmHg 67%
    12:00 -4°C° 0.2 mm 7 mps 737 mmHg 66%
    13:00 -3°C° 0.2 mm 7 mps 738 mmHg 66%
    14:00 -4°C° 0.2 mm 7 mps 738 mmHg 66%
    15:00 -4°C° 0.2 mm 7 mps 739 mmHg 67%
    16:00 -4°C° 0.2 mm 7 mps 739 mmHg 67%
    17:00 -4°C° 0.2 mm 7 mps 740 mmHg 69%
    18:00 -6°C° 0.2 mm 7 mps 740 mmHg 71%
    19:00 -6°C° 0.2 mm 7 mps 741 mmHg 73%
    20:00 -6°C° 0.1 mm 6 mps 741 mmHg 71%
    21:00 -6°C° 0.1 mm 6 mps 741 mmHg 70%
    22:00 -6°C° 0.1 mm 5 mps 742 mmHg 69%
    23:00 -6°C° 0.2 mm 5 mps 742 mmHg 73%

    Tomorrow, 4 April, Saturday

    Time Temperature Precipitation Wind Pressure Humidity
    00:00 -5°C° 0.2 mm 4 mps 743 mmHg 77%
    01:00 -5°C° 0.2 mm 3 mps 744 mmHg 81%
    02:00 -6°C° 0.2 mm 3 mps 745 mmHg 80%
    03:00 -6°C° 0.2 mm 3 mps 745 mmHg 79%
    04:00 -6°C° 0.2 mm 3 mps 746 mmHg 77%
    05:00 -5°C° 0.2 mm 3 mps 747 mmHg 78%
    06:00 -5°C° 0.2 mm 3 mps 748 mmHg 78%
    07:00 -5°C° 0.2 mm 3 mps 749 mmHg 78%
    08:00 -5°C° 0.2 mm 4 mps 749 mmHg 78%
    09:00 -5°C° 0.2 mm 5 mps 750 mmHg 77%
    10:00 -5°C° 0.2 mm 5 mps 751 mmHg 77%
    11:00 -5°C° 0.2 mm 6 mps 752 mmHg 72%
    12:00 -4°C° 0.2 mm 6 mps 752 mmHg 68%
    13:00 -4°C° 0.2 mm 7 mps 753 mmHg 64%
    14:00 -4°C° 0.1 mm 6 mps 754 mmHg 66%
    15:00 -4°C° 0.1 mm 6 mps 754 mmHg 69%
    16:00 -4°C° 0.1 mm 6 mps 755 mmHg 72%
    17:00 -5°C° 0.1 mm 5 mps 756 mmHg 74%
    18:00 -5°C° 0.1 mm 3 mps 756 mmHg 76%
    19:00 -4°C° 0.1 mm 2 mps 757 mmHg 79%
    20:00 -5°C° 0 mm 2 mps 757 mmHg 83%
    21:00 -5°C° 0 mm 2 mps 757 mmHg 87%
    22:00 -5°C° 0 mm 2 mps 758 mmHg 91%
    23:00 -5°C° 0 mm 2 mps 757 mmHg 91%

    Day after tomorrow, 5 April, Sunday

    Time Temperature Precipitation Wind Pressure Humidity
    00:00 -6°C° 0 mm 2 mps 757 mmHg 92%
    01:00 -6°C° 0 mm 2 mps 757 mmHg 92%
    02:00 -6°C° 0 mm 2 mps 757 mmHg 90%
    03:00 -6°C° 0 mm 2 mps 756 mmHg 89%
    04:00 -5°C° 0 mm 2 mps 756 mmHg 87%
    05:00 -5°C° 0.1 mm 2 mps 756 mmHg 88%
    06:00 -5°C° 0.1 mm 2 mps 755 mmHg 88%
    07:00 -5°C° 0.1 mm 2 mps 755 mmHg 89%
    08:00 -4°C° 0.6 mm 2 mps 755 mmHg 90%
    09:00 -4°C° 0.6 mm 2 mps 754 mmHg 92%
    10:00 -3°C° 0.6 mm 2 mps 754 mmHg 93%
    11:00 -2°C° 0.2 mm 2 mps 754 mmHg 93%
    12:00 -1°C° 0.2 mm 2 mps 753 mmHg 92%
    13:00 +1°C° 0.2 mm 2 mps 753 mmHg 92%
    14:00 +1°C° 0 mm 2 mps 753 mmHg 92%
    15:00 +2°C° 0 mm 2 mps 752 mmHg 93%
    16:00 +2°C° 0 mm 2 mps 752 mmHg 93%
    17:00 +2°C° 0 mm 2 mps 752 mmHg 92%
    18:00 +2°C° 0 mm 2 mps 752 mmHg 91%
    19:00 +2°C° 0 mm 2 mps 751 mmHg 90%
    20:00 +2°C° 0 mm 2 mps 751 mmHg 90%
    21:00 +2°C° 0 mm 2 mps 751 mmHg 89%
    22:00 +1°C° 0 mm 2 mps 750 mmHg 88%
    23:00 +1°C° 0 mm 2 mps 750 mmHg 88%

    6 April, Monday

    Time Temperature Precipitation Wind Pressure Humidity
    00:00 +1°C° 0 mm 2 mps 750 mmHg 87%
    01:00 +1°C° 0 mm 2 mps 749 mmHg 86%
    02:00 +1°C° 0 mm 2 mps 749 mmHg 85%
    03:00 +1°C° 0 mm 2 mps 749 mmHg 84%
    04:00 +1°C° 0 mm 2 mps 749 mmHg 83%
    05:00 +1°C° 0 mm 2 mps 748 mmHg 83%
    06:00 +2°C° 0 mm 2 mps 748 mmHg 82%
    07:00 +2°C° 0 mm 2 mps 748 mmHg 82%
    08:00 +3°C° 0 mm 2 mps 747 mmHg 84%
    09:00 +3°C° 0 mm 2 mps 747 mmHg 87%
    10:00 +4°C° 0 mm 2 mps 747 mmHg 89%
    11:00 +5°C° 0 mm 2 mps 746 mmHg 89%
    12:00 +5°C° 0 mm 2 mps 746 mmHg 90%
    13:00 +6°C° 0 mm 2 mps 746 mmHg 90%
    14:00 +5°C° 0 mm 3 mps 746 mmHg 92%
    15:00 +5°C° 0 mm 3 mps 745 mmHg 93%
    16:00 +4°C° 0 mm 4 mps 745 mmHg 95%
    17:00 +4°C° 0 mm 4 mps 744 mmHg 93%
    18:00 +4°C° 0 mm 4 mps 744 mmHg 92%
    19:00 +4°C° 0 mm 4 mps 743 mmHg 90%
    20:00 +4°C° 0 mm 4 mps 744 mmHg 88%
    21:00 +4°C° 0 mm 3 mps 744 mmHg 87%
    22:00 +5°C° 0 mm 2 mps 744 mmHg 85%
    23:00 +4°C° 0.7 mm 4 mps 745 mmHg 85%

    7 April, Tuesday

    Time Temperature Precipitation Wind Pressure Humidity
    00:00 +2°C° 0.7 mm 5 mps 745 mmHg 84%
    01:00 +2°C° 0.7 mm 7 mps 746 mmHg 84%
    02:00 +2°C° 0.1 mm 7 mps 746 mmHg 82%
    03:00 +1°C° 0.1 mm 8 mps 747 mmHg 81%
    04:00 +1°C° 0.1 mm 8 mps 748 mmHg 80%
    05:00 0°C° 0.1 mm 8 mps 749 mmHg 80%
    06:00 0°C° 0.1 mm 9 mps 749 mmHg 80%
    07:00 0°C° 0.1 mm 9 mps 750 mmHg 80%
    08:00 0°C° 0.3 mm 10 mps 751 mmHg 82%
    09:00 -1°C° 0.3 mm 11 mps 751 mmHg 83%
    10:00 -2°C° 0.3 mm 12 mps 752 mmHg 85%
    11:00 -2°C° 0.9 mm 12 mps 752 mmHg 86%
    12:00 -1°C° 0.9 mm 13 mps 753 mmHg 86%
    13:00 -1°C° 0.9 mm 13 mps 753 mmHg 87%
    14:00 -1°C° 0.9 mm 14 mps 754 mmHg 86%
    15:00 -1°C° 0.9 mm 14 mps 755 mmHg 85%
    16:00 -1°C° 0.9 mm 14 mps 756 mmHg 85%
    17:00 0°C° 0.2 mm 13 mps 756 mmHg 83%
    18:00 0°C° 0.2 mm 12 mps 757 mmHg 80%
    19:00 +1°C° 0.2 mm 11 mps 758 mmHg 78%
    20:00 +1°C° 0.1 mm 10 mps 759 mmHg 80%
    21:00 +1°C° 0.1 mm 9 mps 760 mmHg 81%
    22:00 +1°C° 0.1 mm 8 mps 761 mmHg 83%
    23:00 0°C° 0.1 mm 7 mps 761 mmHg 84%

    8 April, Wednesday

    Time Temperature Precipitation Wind Pressure Humidity
    00:00 +1°C° 0.1 mm 6 mps 762 mmHg 85%
    01:00 +1°C° 0.1 mm 5 mps 762 mmHg 86%
    02:00 0°C° 0 mm 4 mps 762 mmHg 86%
    03:00 +1°C° 0 mm 3 mps 762 mmHg 86%
    04:00 +1°C° 0 mm 2 mps 762 mmHg 86%
    05:00 +1°C° 0 mm 2 mps 762 mmHg 84%
    06:00 +1°C° 0 mm 2 mps 761 mmHg 83%
    07:00 +1°C° 0 mm 2 mps 761 mmHg 82%
    08:00 +2°C° 0 mm 2 mps 761 mmHg 80%
    09:00 +2°C° 0 mm 2 mps 760 mmHg 79%
    10:00 +3°C° 0 mm 2 mps 760 mmHg 77%
    11:00 +4°C° 0 mm 2 mps 760 mmHg 76%
    12:00 +4°C° 0 mm 2 mps 759 mmHg 75%
    13:00 +5°C° 0 mm 1 mps 759 mmHg 74%
    14:00 +6°C° 0 mm 1 mps 759 mmHg 75%
    15:00 +6°C° 0 mm 1 mps 759 mmHg 76%
    16:00 +6°C° 0 mm 1 mps 758 mmHg 77%
    17:00 +6°C° 0 mm 1 mps 758 mmHg 77%
    18:00 +5°C° 0 mm 1 mps 758 mmHg 76%
    19:00 +5°C° 0 mm 1 mps 757 mmHg 76%
    20:00 +5°C° 0 mm 1 mps 757 mmHg 75%
    21:00 +5°C° 0 mm 1 mps 757 mmHg 75%
    22:00 +5°C° 0 mm 1 mps 757 mmHg 74%
    23:00 +5°C° 0 mm 1 mps 756 mmHg 75%
    Show more